Year,Month,Day,Hour,Minute,Value (Times are PST for temperature in C)
2011,04,23,00,00,4.60
2011,04,23,00,01,4.60
2011,04,23,00,02,4.60
2011,04,23,00,03,4.60
2011,04,23,00,04,4.60
2011,04,23,00,05,4.60
2011,04,23,00,06,4.50
2011,04,23,00,07,4.50
2011,04,23,00,08,4.50
2011,04,23,00,09,4.40
2011,04,23,00,10,4.40
2011,04,23,00,11,4.40
2011,04,23,00,12,4.40
2011,04,23,00,13,4.40
2011,04,23,00,14,4.30
2011,04,23,00,15,4.30
2011,04,23,00,16,4.30
2011,04,23,00,17,4.30
2011,04,23,00,18,4.40
2011,04,23,00,19,4.40
2011,04,23,00,20,4.30
2011,04,23,00,21,4.30
2011,04,23,00,22,4.30
2011,04,23,00,23,4.30
2011,04,23,00,24,4.30
2011,04,23,00,25,4.30
2011,04,23,00,26,4.30
2011,04,23,00,27,4.20
2011,04,23,00,28,4.20
2011,04,23,00,29,4.20
2011,04,23,00,30,4.10
2011,04,23,00,31,4.10
2011,04,23,00,32,4.10
2011,04,23,00,33,4.10
2011,04,23,00,34,4.00
2011,04,23,00,35,4.00
2011,04,23,00,36,3.90
2011,04,23,00,37,3.90
2011,04,23,00,38,3.90
2011,04,23,00,39,3.90
2011,04,23,00,40,3.80
2011,04,23,00,41,3.80
2011,04,23,00,42,3.80
2011,04,23,00,43,3.80
2011,04,23,00,44,3.70
2011,04,23,00,45,3.70
2011,04,23,00,46,3.70
2011,04,23,00,47,3.70
2011,04,23,00,48,3.70
2011,04,23,00,49,3.60
2011,04,23,00,50,3.60
2011,04,23,00,51,3.60
2011,04,23,00,52,3.60
2011,04,23,00,53,3.60
2011,04,23,00,54,3.50
2011,04,23,00,55,3.50
2011,04,23,00,56,3.50
2011,04,23,00,57,3.40
2011,04,23,00,58,3.40
2011,04,23,00,59,3.40
2011,04,23,01,00,3.40
2011,04,23,01,01,3.40
2011,04,23,01,02,3.40
2011,04,23,01,03,3.40
2011,04,23,01,04,3.40
2011,04,23,01,05,3.40
2011,04,23,01,06,3.40
2011,04,23,01,07,3.40
2011,04,23,01,08,3.40
2011,04,23,01,09,3.30
2011,04,23,01,10,3.30
2011,04,23,01,11,3.30
2011,04,23,01,12,3.30
2011,04,23,01,13,3.30
2011,04,23,01,14,3.20
2011,04,23,01,15,3.20
2011,04,23,01,16,3.20
2011,04,23,01,17,3.10
2011,04,23,01,18,3.10
2011,04,23,01,19,3.10
2011,04,23,01,20,3.10
2011,04,23,01,21,3.10
2011,04,23,01,22,3.00
2011,04,23,01,23,3.00
2011,04,23,01,24,3.00
2011,04,23,01,25,3.00
2011,04,23,01,26,2.90
2011,04,23,01,27,2.90
2011,04,23,01,28,2.90
2011,04,23,01,29,2.90
2011,04,23,01,30,2.90
2011,04,23,01,31,2.90
2011,04,23,01,32,2.90
2011,04,23,01,33,2.80
2011,04,23,01,34,2.80
2011,04,23,01,35,2.80
2011,04,23,01,36,2.80
2011,04,23,01,37,2.80
2011,04,23,01,38,2.80
2011,04,23,01,39,2.80
2011,04,23,01,40,2.70
2011,04,23,01,41,2.70
2011,04,23,01,42,2.70
2011,04,23,01,43,2.70
2011,04,23,01,44,2.70
2011,04,23,01,45,2.70
2011,04,23,01,46,2.70
2011,04,23,01,47,2.60
2011,04,23,01,48,2.60
2011,04,23,01,49,2.60
2011,04,23,01,50,2.60
2011,04,23,01,51,2.60
2011,04,23,01,52,2.60
2011,04,23,01,53,2.60
2011,04,23,01,54,2.60
2011,04,23,01,55,2.60
2011,04,23,01,56,2.60
2011,04,23,01,57,2.60
2011,04,23,01,58,2.60
2011,04,23,01,59,2.60
2011,04,23,02,00,2.60
2011,04,23,02,01,2.60
2011,04,23,02,02,2.50
2011,04,23,02,03,2.50
2011,04,23,02,04,2.50
2011,04,23,02,05,2.50
2011,04,23,02,06,2.50
2011,04,23,02,07,2.50
2011,04,23,02,08,2.50
2011,04,23,02,09,2.40
2011,04,23,02,10,2.40
2011,04,23,02,11,2.40
2011,04,23,02,12,2.40
2011,04,23,02,13,2.40
2011,04,23,02,14,2.40
2011,04,23,02,15,2.30
2011,04,23,02,16,2.30
2011,04,23,02,17,2.30
2011,04,23,02,18,2.30
2011,04,23,02,19,2.30
2011,04,23,02,20,2.30
2011,04,23,02,21,2.20
2011,04,23,02,22,2.20
2011,04,23,02,23,2.20
2011,04,23,02,24,2.20
2011,04,23,02,25,2.20
2011,04,23,02,26,2.10
2011,04,23,02,27,2.10
2011,04,23,02,28,2.10
2011,04,23,02,29,2.10
2011,04,23,02,30,2.10
2011,04,23,02,31,2.00
2011,04,23,02,32,2.00
2011,04,23,02,33,2.00
2011,04,23,02,34,2.00
2011,04,23,02,35,2.00
2011,04,23,02,36,2.00
2011,04,23,02,37,1.90
2011,04,23,02,38,1.90
2011,04,23,02,39,1.90
2011,04,23,02,40,1.90
2011,04,23,02,41,1.90
2011,04,23,02,42,1.90
2011,04,23,02,43,1.90
2011,04,23,02,44,1.90
2011,04,23,02,45,1.90
2011,04,23,02,46,1.80
2011,04,23,02,47,1.80
2011,04,23,02,48,1.80
2011,04,23,02,49,1.80
2011,04,23,02,50,1.80
2011,04,23,02,51,1.80
2011,04,23,02,52,1.80
2011,04,23,02,53,1.80
2011,04,23,02,54,1.80
2011,04,23,02,55,1.80
2011,04,23,02,56,1.80
2011,04,23,02,57,1.80
2011,04,23,02,58,1.80
2011,04,23,02,59,1.80
2011,04,23,03,00,1.80
2011,04,23,03,01,1.80
2011,04,23,03,02,1.80
2011,04,23,03,03,1.80
2011,04,23,03,04,1.80
2011,04,23,03,05,1.70
2011,04,23,03,06,1.70
2011,04,23,03,07,1.70
2011,04,23,03,08,1.70
2011,04,23,03,09,1.70
2011,04,23,03,10,1.70
2011,04,23,03,11,1.70
2011,04,23,03,12,1.70
2011,04,23,03,13,1.70
2011,04,23,03,14,1.70
2011,04,23,03,15,1.60
2011,04,23,03,16,1.60
2011,04,23,03,17,1.60
2011,04,23,03,18,1.60
2011,04,23,03,19,1.50
2011,04,23,03,20,1.50
2011,04,23,03,21,1.50
2011,04,23,03,22,1.50
2011,04,23,03,23,1.40
2011,04,23,03,24,1.40
2011,04,23,03,25,1.40
2011,04,23,03,26,1.40
2011,04,23,03,27,1.40
2011,04,23,03,28,1.40
2011,04,23,03,29,1.40
2011,04,23,03,30,1.30
2011,04,23,03,31,1.30
2011,04,23,03,32,1.30
2011,04,23,03,33,1.30
2011,04,23,03,34,1.30
2011,04,23,03,35,1.30
2011,04,23,03,36,1.30
2011,04,23,03,37,1.30
2011,04,23,03,38,1.30
2011,04,23,03,39,1.30
2011,04,23,03,40,1.30
2011,04,23,03,41,1.30
2011,04,23,03,42,1.30
2011,04,23,03,43,1.30
2011,04,23,03,44,1.30
2011,04,23,03,45,1.30
2011,04,23,03,46,1.30
2011,04,23,03,47,1.30
2011,04,23,03,48,1.30
2011,04,23,03,49,1.20
2011,04,23,03,50,1.20
2011,04,23,03,51,1.20
2011,04,23,03,52,1.20
2011,04,23,03,53,1.10
2011,04,23,03,54,1.10
2011,04,23,03,55,1.10
2011,04,23,03,56,1.10
2011,04,23,03,57,1.00
2011,04,23,03,58,1.00
2011,04,23,03,59,1.00
2011,04,23,04,00,1.00
2011,04,23,04,01,1.00
2011,04,23,04,02,0.90
2011,04,23,04,03,0.90
2011,04,23,04,04,0.90
2011,04,23,04,05,0.90
2011,04,23,04,06,0.90
2011,04,23,04,07,0.90
2011,04,23,04,08,0.90
2011,04,23,04,09,0.90
2011,04,23,04,10,0.90
2011,04,23,04,11,0.80
2011,04,23,04,12,0.80
2011,04,23,04,13,0.80
2011,04,23,04,14,0.80
2011,04,23,04,15,0.80
2011,04,23,04,16,0.80
2011,04,23,04,17,0.80
2011,04,23,04,18,0.80
2011,04,23,04,19,0.80
2011,04,23,04,20,0.80
2011,04,23,04,21,0.80
2011,04,23,04,22,0.70
2011,04,23,04,23,0.70
2011,04,23,04,24,0.70
2011,04,23,04,25,0.70
2011,04,23,04,26,0.70
2011,04,23,04,27,0.70
2011,04,23,04,28,0.70
2011,04,23,04,29,0.70
2011,04,23,04,30,0.70
2011,04,23,04,31,0.70
2011,04,23,04,32,0.70
2011,04,23,04,33,0.70
2011,04,23,04,34,0.70
2011,04,23,04,35,0.70
2011,04,23,04,36,0.80
2011,04,23,04,37,0.80
2011,04,23,04,38,0.80
2011,04,23,04,39,0.80
2011,04,23,04,40,0.80
2011,04,23,04,41,0.90
2011,04,23,04,42,0.90
2011,04,23,04,43,0.90
2011,04,23,04,44,0.90
2011,04,23,04,45,0.90
2011,04,23,04,46,1.00
2011,04,23,04,47,1.00
2011,04,23,04,48,1.00
2011,04,23,04,49,1.00
2011,04,23,04,50,1.00
2011,04,23,04,51,1.00
2011,04,23,04,52,1.00
2011,04,23,04,53,1.00
2011,04,23,04,54,1.00
2011,04,23,04,55,0.90
2011,04,23,04,56,0.90
2011,04,23,04,57,0.90
2011,04,23,04,58,0.90
2011,04,23,04,59,0.90
2011,04,23,05,00,0.90
2011,04,23,05,01,0.90
2011,04,23,05,02,0.80
2011,04,23,05,03,0.80
2011,04,23,05,04,0.80
2011,04,23,05,05,0.80
2011,04,23,05,06,0.80
2011,04,23,05,07,0.70
2011,04,23,05,08,0.70
2011,04,23,05,09,0.70
2011,04,23,05,10,0.70
2011,04,23,05,11,0.70
2011,04,23,05,12,0.60
2011,04,23,05,13,0.60
2011,04,23,05,14,0.60
2011,04,23,05,15,0.60
2011,04,23,05,16,0.60
2011,04,23,05,17,0.60
2011,04,23,05,18,0.60
2011,04,23,05,19,0.50
2011,04,23,05,20,0.50
2011,04,23,05,21,0.50
2011,04,23,05,22,0.50
2011,04,23,05,23,0.40
2011,04,23,05,24,0.40
2011,04,23,05,25,0.40
2011,04,23,05,26,0.40
2011,04,23,05,27,0.40
2011,04,23,05,28,0.40
2011,04,23,05,29,0.40
2011,04,23,05,30,0.40
2011,04,23,05,31,0.40
2011,04,23,05,32,0.30
2011,04,23,05,33,0.40
2011,04,23,05,34,0.40
2011,04,23,05,35,0.40
2011,04,23,05,36,0.40
2011,04,23,05,37,0.40
2011,04,23,05,38,0.40
2011,04,23,05,39,0.40
2011,04,23,05,40,0.40
2011,04,23,05,41,0.40
2011,04,23,05,42,0.40
2011,04,23,05,43,0.40
2011,04,23,05,44,0.40
2011,04,23,05,45,0.40
2011,04,23,05,46,0.40
2011,04,23,05,47,0.30
2011,04,23,05,48,0.30
2011,04,23,05,49,0.30
2011,04,23,05,50,0.30
2011,04,23,05,51,0.30
2011,04,23,05,52,0.20
2011,04,23,05,53,0.20
2011,04,23,05,54,0.20
2011,04,23,05,55,0.10
2011,04,23,05,56,0.10
2011,04,23,05,57,0.10
2011,04,23,05,58,0.00
2011,04,23,05,59,0.00
2011,04,23,06,00,-0.10
2011,04,23,06,01,-0.10
2011,04,23,06,02,-0.10
2011,04,23,06,03,-0.10
2011,04,23,06,04,-0.10
2011,04,23,06,05,-0.10
2011,04,23,06,06,-0.10
2011,04,23,06,07,-0.10
2011,04,23,06,08,-0.10
2011,04,23,06,09,-0.20
2011,04,23,06,10,-0.20
2011,04,23,06,11,-0.10
2011,04,23,06,12,-0.10
2011,04,23,06,13,-0.10
2011,04,23,06,14,-0.10
2011,04,23,06,15,-0.10
2011,04,23,06,16,-0.10
2011,04,23,06,17,-0.10
2011,04,23,06,18,0.00
2011,04,23,06,19,0.00
2011,04,23,06,20,0.00
2011,04,23,06,21,0.00
2011,04,23,06,22,0.00
2011,04,23,06,23,0.00
2011,04,23,06,24,0.00
2011,04,23,06,25,0.00
2011,04,23,06,26,0.10
2011,04,23,06,27,0.10
2011,04,23,06,28,0.10
2011,04,23,06,29,0.10
2011,04,23,06,30,0.10
2011,04,23,06,31,0.10
2011,04,23,06,32,0.10
2011,04,23,06,33,0.10
2011,04,23,06,34,0.10
2011,04,23,06,35,0.10
2011,04,23,06,36,0.10
2011,04,23,06,37,0.10
2011,04,23,06,38,0.10
2011,04,23,06,39,0.10
2011,04,23,06,40,0.10
2011,04,23,06,41,0.10
2011,04,23,06,42,0.10
2011,04,23,06,43,0.10
2011,04,23,06,44,0.10
2011,04,23,06,45,0.10
2011,04,23,06,46,0.10
2011,04,23,06,47,0.10
2011,04,23,06,48,0.10
2011,04,23,06,49,0.10
2011,04,23,06,50,0.10
2011,04,23,06,51,0.10
2011,04,23,06,52,0.20
2011,04,23,06,53,0.20
2011,04,23,06,54,0.20
2011,04,23,06,55,0.20
2011,04,23,06,56,0.20
2011,04,23,06,57,0.30
2011,04,23,06,58,0.30
2011,04,23,06,59,0.30
2011,04,23,07,00,0.30
2011,04,23,07,01,0.30
2011,04,23,07,02,0.30
2011,04,23,07,03,0.30
2011,04,23,07,04,0.30
2011,04,23,07,05,0.30
2011,04,23,07,06,0.30
2011,04,23,07,07,0.30
2011,04,23,07,08,0.30
2011,04,23,07,09,0.30
2011,04,23,07,10,0.30
2011,04,23,07,11,0.30
2011,04,23,07,12,0.30
2011,04,23,07,13,0.30
2011,04,23,07,14,0.30
2011,04,23,07,15,0.30
2011,04,23,07,16,0.30
2011,04,23,07,17,0.30
2011,04,23,07,18,0.30
2011,04,23,07,19,0.30
2011,04,23,07,20,0.30
2011,04,23,07,21,0.30
2011,04,23,07,22,0.30
2011,04,23,07,23,0.30
2011,04,23,07,24,0.30
2011,04,23,07,25,0.30
2011,04,23,07,26,0.30
2011,04,23,07,27,0.30
2011,04,23,07,28,0.30
2011,04,23,07,29,0.30
2011,04,23,07,30,0.30
2011,04,23,07,31,0.30
2011,04,23,07,32,0.30
2011,04,23,07,33,0.30
2011,04,23,07,34,0.30
2011,04,23,07,35,0.30
2011,04,23,07,36,0.30
2011,04,23,07,37,0.30
2011,04,23,07,38,0.30
2011,04,23,07,39,0.30
2011,04,23,07,40,0.30
2011,04,23,07,41,0.40
2011,04,23,07,42,0.40
2011,04,23,07,43,0.40
2011,04,23,07,44,0.40
2011,04,23,07,45,0.50
2011,04,23,07,46,0.50
2011,04,23,07,47,0.50
2011,04,23,07,48,0.60
2011,04,23,07,49,0.60
2011,04,23,07,50,0.60
2011,04,23,07,51,0.60
2011,04,23,07,52,0.70
2011,04,23,07,53,0.70
2011,04,23,07,54,0.70
2011,04,23,07,55,0.70
2011,04,23,07,56,0.70
2011,04,23,07,57,0.80
2011,04,23,07,58,0.80
2011,04,23,07,59,0.80
2011,04,23,08,00,0.80
2011,04,23,08,01,0.90
2011,04,23,08,02,0.90
2011,04,23,08,03,0.90
2011,04,23,08,04,1.00
2011,04,23,08,05,1.00
2011,04,23,08,06,1.10
2011,04,23,08,07,1.10
2011,04,23,08,08,1.10
2011,04,23,08,09,1.20
2011,04,23,08,10,1.20
2011,04,23,08,11,1.20
2011,04,23,08,12,1.20
2011,04,23,08,13,1.20
2011,04,23,08,14,1.30
2011,04,23,08,15,1.30
2011,04,23,08,16,1.30
2011,04,23,08,17,1.30
2011,04,23,08,18,1.40
2011,04,23,08,19,1.40
2011,04,23,08,20,1.40
2011,04,23,08,21,1.40
2011,04,23,08,22,1.40
2011,04,23,08,23,1.50
2011,04,23,08,24,1.50
2011,04,23,08,25,1.60
2011,04,23,08,26,1.60
2011,04,23,08,27,1.60
2011,04,23,08,28,1.70
2011,04,23,08,29,1.70
2011,04,23,08,30,1.70
2011,04,23,08,31,1.80
2011,04,23,08,32,1.80
2011,04,23,08,33,1.80
2011,04,23,08,34,1.80
2011,04,23,08,35,1.90
2011,04,23,08,36,1.90
2011,04,23,08,37,1.90
2011,04,23,08,38,1.90
2011,04,23,08,39,2.00
2011,04,23,08,40,2.00
2011,04,23,08,41,2.00
2011,04,23,08,42,2.10
2011,04,23,08,43,2.10
2011,04,23,08,44,2.10
2011,04,23,08,45,2.20
2011,04,23,08,46,2.20
2011,04,23,08,47,2.20
2011,04,23,08,48,2.20
2011,04,23,08,49,2.30
2011,04,23,08,50,2.30
2011,04,23,08,51,2.30
2011,04,23,08,52,2.30
2011,04,23,08,53,2.40
2011,04,23,08,54,2.40
2011,04,23,08,55,2.40
2011,04,23,08,56,2.40
2011,04,23,08,57,2.40
2011,04,23,08,58,2.50
2011,04,23,08,59,2.50
2011,04,23,09,00,2.50
2011,04,23,09,01,2.50
2011,04,23,09,02,2.60
2011,04,23,09,03,2.60
2011,04,23,09,04,2.60
2011,04,23,09,05,2.70
2011,04,23,09,06,2.70
2011,04,23,09,07,2.70
2011,04,23,09,08,2.70
2011,04,23,09,09,2.80
2011,04,23,09,10,2.80
2011,04,23,09,11,2.80
2011,04,23,09,12,2.80
2011,04,23,09,13,2.90
2011,04,23,09,14,2.90
2011,04,23,09,15,2.90
2011,04,23,09,16,3.00
2011,04,23,09,17,3.00
2011,04,23,09,18,3.10
2011,04,23,09,19,3.10
2011,04,23,09,20,3.10
2011,04,23,09,21,3.20
2011,04,23,09,22,3.20
2011,04,23,09,23,3.20
2011,04,23,09,24,3.30
2011,04,23,09,25,3.30
2011,04,23,09,26,3.40
2011,04,23,09,27,3.40
2011,04,23,09,28,3.50
2011,04,23,09,29,3.50
2011,04,23,09,30,3.60
2011,04,23,09,31,3.70
2011,04,23,09,32,3.70
2011,04,23,09,33,3.80
2011,04,23,09,34,3.80
2011,04,23,09,35,3.90
2011,04,23,09,36,4.00
2011,04,23,09,37,4.00
2011,04,23,09,38,4.10
2011,04,23,09,39,4.20
2011,04,23,09,40,4.30
2011,04,23,09,41,4.30
2011,04,23,09,42,4.40
2011,04,23,09,43,4.50
2011,04,23,09,44,4.60
2011,04,23,09,45,4.70
2011,04,23,09,46,4.70
2011,04,23,09,47,4.80
2011,04,23,09,48,4.90
2011,04,23,09,49,5.00
2011,04,23,09,50,5.10
2011,04,23,09,51,5.10
2011,04,23,09,52,5.20
2011,04,23,09,53,5.20
2011,04,23,09,54,5.20
2011,04,23,09,55,5.30
2011,04,23,09,56,5.30
2011,04,23,09,57,5.30
2011,04,23,09,58,5.30
2011,04,23,09,59,5.30
2011,04,23,10,00,5.30
2011,04,23,10,01,5.40
2011,04,23,10,02,5.40
2011,04,23,10,03,5.40
2011,04,23,10,04,5.40
2011,04,23,10,05,5.50
2011,04,23,10,06,5.50
2011,04,23,10,07,5.50
2011,04,23,10,08,5.60
2011,04,23,10,09,5.60
2011,04,23,10,10,5.60
2011,04,23,10,11,5.70
2011,04,23,10,12,5.70
2011,04,23,10,13,5.80
2011,04,23,10,14,5.80
2011,04,23,10,15,5.90
2011,04,23,10,16,6.00
2011,04,23,10,17,6.00
2011,04,23,10,18,6.10
2011,04,23,10,19,6.20
2011,04,23,10,20,6.30
2011,04,23,10,21,6.40
2011,04,23,10,22,6.60
2011,04,23,10,23,6.70
2011,04,23,10,24,6.80
2011,04,23,10,25,7.00
2011,04,23,10,26,7.10
2011,04,23,10,27,7.20
2011,04,23,10,28,7.30
2011,04,23,10,29,7.50
2011,04,23,10,30,7.60
2011,04,23,10,31,7.70
2011,04,23,10,32,7.90
2011,04,23,10,33,8.00
2011,04,23,10,34,8.10
2011,04,23,10,35,8.20
2011,04,23,10,36,8.40
2011,04,23,10,37,8.50
2011,04,23,10,38,8.60
2011,04,23,10,39,8.70
2011,04,23,10,40,8.70
2011,04,23,10,41,8.70
2011,04,23,10,42,8.60
2011,04,23,10,43,8.50
2011,04,23,10,44,8.50
2011,04,23,10,45,8.40
2011,04,23,10,46,8.40
2011,04,23,10,47,8.50
2011,04,23,10,48,8.60
2011,04,23,10,49,8.70
2011,04,23,10,50,8.80
2011,04,23,10,51,8.90
2011,04,23,10,52,9.00
2011,04,23,10,53,9.00
2011,04,23,10,54,9.00
2011,04,23,10,55,8.90
2011,04,23,10,56,8.90
2011,04,23,10,57,8.80
2011,04,23,10,58,8.80
2011,04,23,10,59,8.80
2011,04,23,11,00,8.80
2011,04,23,11,01,8.80
2011,04,23,11,02,8.80
2011,04,23,11,03,8.80
2011,04,23,11,04,8.80
2011,04,23,11,05,8.80
2011,04,23,11,06,8.90
2011,04,23,11,07,9.00
2011,04,23,11,08,9.00
2011,04,23,11,09,9.00
2011,04,23,11,10,9.00
2011,04,23,11,11,9.00
2011,04,23,11,12,9.00
2011,04,23,11,13,9.00
2011,04,23,11,14,9.00
2011,04,23,11,15,9.10
2011,04,23,11,16,9.20
2011,04,23,11,17,9.30
2011,04,23,11,18,9.40
2011,04,23,11,19,9.50
2011,04,23,11,20,9.60
2011,04,23,11,21,9.60
2011,04,23,11,22,9.70
2011,04,23,11,23,9.80
2011,04,23,11,24,9.80
2011,04,23,11,25,9.80
2011,04,23,11,26,9.80
2011,04,23,11,27,9.80
2011,04,23,11,28,9.90
2011,04,23,11,29,10.00
2011,04,23,11,30,10.10
2011,04,23,11,31,10.10
2011,04,23,11,32,10.10
2011,04,23,11,33,10.20
2011,04,23,11,34,10.20
2011,04,23,11,35,10.20
2011,04,23,11,36,10.20
2011,04,23,11,37,10.20
2011,04,23,11,38,10.20
2011,04,23,11,39,10.30
2011,04,23,11,40,10.30
2011,04,23,11,41,10.30
2011,04,23,11,42,10.30
2011,04,23,11,43,10.40
2011,04,23,11,44,10.40
2011,04,23,11,45,10.40
2011,04,23,11,46,10.40
2011,04,23,11,47,10.40
2011,04,23,11,48,10.50
2011,04,23,11,49,10.50
2011,04,23,11,50,10.50
2011,04,23,11,51,10.60
2011,04,23,11,52,10.60
2011,04,23,11,53,10.70
2011,04,23,11,54,10.80
2011,04,23,11,55,10.90
2011,04,23,11,56,11.00
2011,04,23,11,57,11.10
2011,04,23,11,58,11.20
2011,04,23,11,59,11.30
2011,04,23,12,00,11.30
2011,04,23,12,01,11.30
2011,04,23,12,02,11.30
2011,04,23,12,03,11.40
2011,04,23,12,04,11.50
2011,04,23,12,05,11.70
2011,04,23,12,06,11.80
2011,04,23,12,07,11.80
2011,04,23,12,08,11.80
2011,04,23,12,09,11.70
2011,04,23,12,10,11.70
2011,04,23,12,11,11.70
2011,04,23,12,12,11.60
2011,04,23,12,13,11.60
2011,04,23,12,14,11.70
2011,04,23,12,15,11.70
2011,04,23,12,16,11.70
2011,04,23,12,17,11.70
2011,04,23,12,18,11.70
2011,04,23,12,19,11.70
2011,04,23,12,20,11.80
2011,04,23,12,21,11.80
2011,04,23,12,22,11.90
2011,04,23,12,23,12.00
2011,04,23,12,24,12.10
2011,04,23,12,25,12.30
2011,04,23,12,26,12.40
2011,04,23,12,27,12.50
2011,04,23,12,28,12.50
2011,04,23,12,29,12.60
2011,04,23,12,30,12.60
2011,04,23,12,31,12.60
2011,04,23,12,32,12.60
2011,04,23,12,33,12.70
2011,04,23,12,34,12.70
2011,04,23,12,35,12.70
2011,04,23,12,36,12.70
2011,04,23,12,37,12.70
2011,04,23,12,38,12.70
2011,04,23,12,39,12.80
2011,04,23,12,40,12.80
2011,04,23,12,41,12.80
2011,04,23,12,42,12.80
2011,04,23,12,43,12.80
2011,04,23,12,44,12.80
2011,04,23,12,45,12.90
2011,04,23,12,46,12.90
2011,04,23,12,47,13.00
2011,04,23,12,48,13.00
2011,04,23,12,49,13.10
2011,04,23,12,50,13.10
2011,04,23,12,51,13.20
2011,04,23,12,52,13.30
2011,04,23,12,53,13.40
2011,04,23,12,54,13.50
2011,04,23,12,55,13.60
2011,04,23,12,56,13.70
2011,04,23,12,57,13.70
2011,04,23,12,58,13.80
2011,04,23,12,59,13.90
2011,04,23,13,00,14.00
2011,04,23,13,01,14.10
2011,04,23,13,02,14.10
2011,04,23,13,03,14.20
2011,04,23,13,04,14.30
2011,04,23,13,05,14.50
2011,04,23,13,06,14.60
2011,04,23,13,07,14.60
2011,04,23,13,08,14.60
2011,04,23,13,09,14.50
2011,04,23,13,10,14.40
2011,04,23,13,11,14.40
2011,04,23,13,12,14.30
2011,04,23,13,13,14.20
2011,04,23,13,14,14.10
2011,04,23,13,15,14.10
2011,04,23,13,16,14.10
2011,04,23,13,17,14.10
2011,04,23,13,18,14.20
2011,04,23,13,19,14.30
2011,04,23,13,20,14.50
2011,04,23,13,21,14.70
2011,04,23,13,22,14.90
2011,04,23,13,23,15.10
2011,04,23,13,24,15.10
2011,04,23,13,25,15.10
2011,04,23,13,26,15.10
2011,04,23,13,27,15.10
2011,04,23,13,28,15.10
2011,04,23,13,29,15.20
2011,04,23,13,30,15.30
2011,04,23,13,31,15.40
2011,04,23,13,32,15.50
2011,04,23,13,33,15.80
2011,04,23,13,34,16.10
2011,04,23,13,35,16.50
2011,04,23,13,36,17.00
2011,04,23,13,37,17.30
2011,04,23,13,38,17.70
2011,04,23,13,39,18.00
2011,04,23,13,40,18.30
2011,04,23,13,41,18.60
2011,04,23,13,42,18.90
2011,04,23,13,43,19.10
2011,04,23,13,44,19.30
2011,04,23,13,45,19.50
2011,04,23,13,46,19.50
2011,04,23,13,47,19.60
2011,04,23,13,48,19.70
2011,04,23,13,49,19.90
2011,04,23,13,50,20.10
2011,04,23,13,51,20.20
2011,04,23,13,52,20.30
2011,04,23,13,53,20.40
2011,04,23,13,54,20.40
2011,04,23,13,55,20.30
2011,04,23,13,56,20.20
2011,04,23,13,57,20.10
2011,04,23,13,58,20.00
2011,04,23,13,59,19.90
2011,04,23,14,00,19.80
2011,04,23,14,01,19.80
2011,04,23,14,02,19.80
2011,04,23,14,03,19.80
2011,04,23,14,04,19.80
2011,04,23,14,05,19.80
2011,04,23,14,06,19.90
2011,04,23,14,07,19.90
2011,04,23,14,08,19.90
2011,04,23,14,09,19.90
2011,04,23,14,10,19.80
2011,04,23,14,11,19.70
2011,04,23,14,12,19.60
2011,04,23,14,13,19.50
2011,04,23,14,14,19.50
2011,04,23,14,15,19.40
2011,04,23,14,16,19.30
2011,04,23,14,17,19.30
2011,04,23,14,18,19.30
2011,04,23,14,19,19.30
2011,04,23,14,20,19.20
2011,04,23,14,21,19.20
2011,04,23,14,22,19.20
2011,04,23,14,23,19.20
2011,04,23,14,24,19.20
2011,04,23,14,25,19.30
2011,04,23,14,26,19.30
2011,04,23,14,27,19.20
2011,04,23,14,28,19.20
2011,04,23,14,29,19.20
2011,04,23,14,30,19.20
2011,04,23,14,31,19.30
2011,04,23,14,32,19.30
2011,04,23,14,33,19.30
2011,04,23,14,34,19.40
2011,04,23,14,35,19.30
2011,04,23,14,36,19.30
2011,04,23,14,37,19.30
2011,04,23,14,38,19.20
2011,04,23,14,39,19.20
2011,04,23,14,40,19.10
2011,04,23,14,41,19.10
2011,04,23,14,42,19.00
2011,04,23,14,43,19.00
2011,04,23,14,44,18.90
2011,04,23,14,45,18.90
2011,04,23,14,46,18.90
2011,04,23,14,47,18.90
2011,04,23,14,48,18.90
2011,04,23,14,49,19.00
2011,04,23,14,50,19.10
2011,04,23,14,51,19.10
2011,04,23,14,52,19.20
2011,04,23,14,53,19.20
2011,04,23,14,54,19.30
2011,04,23,14,55,19.40
2011,04,23,14,56,19.40
2011,04,23,14,57,19.40
2011,04,23,14,58,19.40
2011,04,23,14,59,19.50
2011,04,23,15,00,19.50
2011,04,23,15,01,19.50
2011,04,23,15,02,19.60
2011,04,23,15,03,19.60
2011,04,23,15,04,19.60
2011,04,23,15,05,19.50
2011,04,23,15,06,19.40
2011,04,23,15,07,19.30
2011,04,23,15,08,19.20
2011,04,23,15,09,19.10
2011,04,23,15,10,19.00
2011,04,23,15,11,18.90
2011,04,23,15,12,18.90
2011,04,23,15,13,18.90
2011,04,23,15,14,18.90
2011,04,23,15,15,19.00
2011,04,23,15,16,18.90
2011,04,23,15,17,18.90
2011,04,23,15,18,18.90
2011,04,23,15,19,18.90
2011,04,23,15,20,19.00
2011,04,23,15,21,19.00
2011,04,23,15,22,19.00
2011,04,23,15,23,19.10
2011,04,23,15,24,19.10
2011,04,23,15,25,19.10
2011,04,23,15,26,19.20
2011,04,23,15,27,19.20
2011,04,23,15,28,19.10
2011,04,23,15,29,19.00
2011,04,23,15,30,19.00
2011,04,23,15,31,18.90
2011,04,23,15,32,19.00
2011,04,23,15,33,19.00
2011,04,23,15,34,19.10
2011,04,23,15,35,19.10
2011,04,23,15,36,19.20
2011,04,23,15,37,19.20
2011,04,23,15,38,19.20
2011,04,23,15,39,19.20
2011,04,23,15,40,19.20
2011,04,23,15,41,19.20
2011,04,23,15,42,19.30
2011,04,23,15,43,19.30
2011,04,23,15,44,19.40
2011,04,23,15,45,19.40
2011,04,23,15,46,19.50
2011,04,23,15,47,19.50
2011,04,23,15,48,19.60
2011,04,23,15,49,19.60
2011,04,23,15,50,19.70
2011,04,23,15,51,19.80
2011,04,23,15,52,19.90
2011,04,23,15,53,20.00
2011,04,23,15,54,20.10
2011,04,23,15,55,20.10
2011,04,23,15,56,20.00
2011,04,23,15,57,19.90
2011,04,23,15,58,19.80
2011,04,23,15,59,19.80
2011,04,23,16,00,19.80
2011,04,23,16,01,19.80
2011,04,23,16,02,19.80
2011,04,23,16,03,19.80
2011,04,23,16,04,19.80
2011,04,23,16,05,19.80
2011,04,23,16,06,19.80
2011,04,23,16,07,19.80
2011,04,23,16,08,19.80
2011,04,23,16,09,19.80
2011,04,23,16,10,19.70
2011,04,23,16,11,19.60
2011,04,23,16,12,19.50
2011,04,23,16,13,19.50
2011,04,23,16,14,19.40
2011,04,23,16,15,19.40
2011,04,23,16,16,19.40
2011,04,23,16,17,19.40
2011,04,23,16,18,19.40
2011,04,23,16,19,19.40
2011,04,23,16,20,19.40
2011,04,23,16,21,19.40
2011,04,23,16,22,19.50
2011,04,23,16,23,19.50
2011,04,23,16,24,19.50
2011,04,23,16,25,19.50
2011,04,23,16,26,19.50
2011,04,23,16,27,19.50
2011,04,23,16,28,19.60
2011,04,23,16,29,19.60
2011,04,23,16,30,19.50
2011,04,23,16,31,19.50
2011,04,23,16,32,19.50
2011,04,23,16,33,19.60
2011,04,23,16,34,19.60
2011,04,23,16,35,19.60
2011,04,23,16,36,19.60
2011,04,23,16,37,19.60
2011,04,23,16,38,19.70
2011,04,23,16,39,19.70
2011,04,23,16,40,19.70
2011,04,23,16,41,19.70
2011,04,23,16,42,19.70
2011,04,23,16,43,19.70
2011,04,23,16,44,19.70
2011,04,23,16,45,19.70
2011,04,23,16,46,19.70
2011,04,23,16,47,19.60
2011,04,23,16,48,19.60
2011,04,23,16,49,19.50
2011,04,23,16,50,19.50
2011,04,23,16,51,19.40
2011,04,23,16,52,19.40
2011,04,23,16,53,19.30
2011,04,23,16,54,19.20
2011,04,23,16,55,19.10
2011,04,23,16,56,19.00
2011,04,23,16,57,19.00
2011,04,23,16,58,19.00
2011,04,23,16,59,19.10
2011,04,23,17,00,19.10
2011,04,23,17,01,19.10
2011,04,23,17,02,19.10
2011,04,23,17,03,19.10
2011,04,23,17,04,19.20
2011,04,23,17,05,19.20
2011,04,23,17,06,19.10
2011,04,23,17,07,19.10
2011,04,23,17,08,19.10
2011,04,23,17,09,19.00
2011,04,23,17,10,19.00
2011,04,23,17,11,18.90
2011,04,23,17,12,18.90
2011,04,23,17,13,18.90
2011,04,23,17,14,18.90
2011,04,23,17,15,18.90
2011,04,23,17,16,19.00
2011,04,23,17,17,19.10
2011,04,23,17,18,19.10
2011,04,23,17,19,19.10
2011,04,23,17,20,19.10
2011,04,23,17,21,19.20
2011,04,23,17,22,19.20
2011,04,23,17,23,19.10
2011,04,23,17,24,19.00
2011,04,23,17,25,18.90
2011,04,23,17,26,18.80
2011,04,23,17,27,18.80
2011,04,23,17,28,18.80
2011,04,23,17,29,18.70
2011,04,23,17,30,18.70
2011,04,23,17,31,18.60
2011,04,23,17,32,18.60
2011,04,23,17,33,18.60
2011,04,23,17,34,18.60
2011,04,23,17,35,18.50
2011,04,23,17,36,18.50
2011,04,23,17,37,18.40
2011,04,23,17,38,18.40
2011,04,23,17,39,18.40
2011,04,23,17,40,18.40
2011,04,23,17,41,18.50
2011,04,23,17,42,18.60
2011,04,23,17,43,18.60
2011,04,23,17,44,18.70
2011,04,23,17,45,18.70
2011,04,23,17,46,18.70
2011,04,23,17,47,18.70
2011,04,23,17,48,18.70